"Pseudo-MPEC" for A10QMRO

Created 2022 Nov 27 19:22:03 UT using Find_Orb

Click here for an explanation of pseudo-MPECs

 
 Astrometry: 
     A10QMRO* C2022 11 20)wAstrometryG2o$IHredacted;l9U1LQ$gv+clicknlS'#q3!2ZW68
     A10QMRO  C2022 11 204q=f)[w,]iF8UrCY9@?-frhiherej_#kL7C.forFb7[9Dr(Dd7.KW68
     A10QMRO  C2022 11 200(j=nb,^-E;xq,X;:$W+_p)1RMexplanationvjD*;T2_KZ!W.#3W68
     A10QMRO  C2022 11 20-N??i3xF?7HIovE9@OTN;myOn1H#4[dU),h'R-sI0B,gWpeTeXS:W68

Station data:
(W68) ATLAS Chile, Rio Hurtado  (S30.471010 W70.764980)  Chile.

Orbital elements:  A10QMRO
   Perigee 2022 Nov 19.91982 +/- 6.04 TT = 22:04:32 (JD 2459903.41982)
Epoch 2022 Nov 20.0 TT = JDT 2459903.5                        AutoNEOCP
q 57140.1024 +/- 3.77e+6            (J2000 equator)
H   31.7  G 0.15                    Peri.  306.92436 +/- 160
                                    Node    52.73090 +/- 48
e   3.8574676 +/- 0.213             Incl.   33.98872 +/- 0.8
From 4 observations 2022 Nov. 20 (18.2 min); mean residual 2".08
Residuals in arcseconds: 
221120 W68  2.7+  2.9+    221120 W68  .59-  1.8-    
221120 W68  2.8-  2.4-    221120 W68  .64+  1.3+    

Ephemerides (geocentric):
Date (UTC) HH   RA             Dec           delta  r     elong  mag " sig PA
---- --------  ------------   ------------  ------ ------ -----  --- --------
2022 11 27 19  06 30 21.219   +25 35 29.12  .02085 1.0046 148.3 24.6 933' 157
2022 11 27 20  06 30 22.184   +25 35 39.20  .02096 1.0046 148.3 24.6 889' 157
2022 11 27 21  06 30 23.129   +25 35 49.18  .02107 1.0047 148.3 24.6 850' 158
2022 11 27 22  06 30 24.055   +25 35 59.06  .02118 1.0048 148.4 24.6 814' 159
2022 11 27 23  06 30 24.961   +25 36 08.83  .02129 1.0049 148.4 24.7 783' 159
2022 11 28 00  06 30 25.849   +25 36 18.50  .02140 1.0050 148.5 24.7 755' 160
2022 11 28 01  06 30 26.718   +25 36 28.07  .02151 1.0051 148.5 24.7 730' 161
2022 11 28 02  06 30 27.569   +25 36 37.54  .02162 1.0052 148.5 24.7 709' 161
2022 11 28 03  06 30 28.402   +25 36 46.92  .02173 1.0053 148.6 24.7 690' 162
2022 11 28 04  06 30 29.217   +25 36 56.20  .02184 1.0054 148.6 24.7 674' 162
2022 11 28 05  06 30 30.014   +25 37 05.38  .02195 1.0055 148.7 24.7 661' 163
2022 11 28 06  06 30 30.794   +25 37 14.48  .02206 1.0056 148.7 24.7 651' 163
2022 11 28 07  06 30 31.557   +25 37 23.48  .02217 1.0057 148.7 24.7 643' 164
2022 11 28 08  06 30 32.303   +25 37 32.39  .02228 1.0058 148.8 24.7 638' 164
2022 11 28 09  06 30 33.032   +25 37 41.21  .02238 1.0059 148.8 24.8 634' 164
2022 11 28 10  06 30 33.745   +25 37 49.95  .02249 1.0060 148.9 24.8 633' 164
2022 11 28 11  06 30 34.442   +25 37 58.59  .02260 1.0061 148.9 24.8 634' 165
2022 11 28 12  06 30 35.122   +25 38 07.16  .02271 1.0062 148.9 24.8 636' 165
2022 11 28 13  06 30 35.787   +25 38 15.63  .02282 1.0063 149.0 24.8 641' 165
2022 11 28 14  06 30 36.436   +25 38 24.03  .02293 1.0063 149.0 24.8 647' 165
2022 11 28 15  06 30 37.070   +25 38 32.34  .02304 1.0064 149.1 24.8 654' 166
2022 11 28 16  06 30 37.688   +25 38 40.58  .02315 1.0065 149.1 24.8 663' 166
2022 11 28 17  06 30 38.292   +25 38 48.73  .02326 1.0066 149.1 24.8 673' 166
2022 11 28 18  06 30 38.880   +25 38 56.81  .02337 1.0067 149.2 24.8 685' 167
2022 11 28 19  06 30 39.454   +25 39 04.80  .02348 1.0068 149.2 24.9 697' 167
2022 11 28 20  06 30 40.014   +25 39 12.73  .02359 1.0069 149.3 24.9 711' 167
2022 11 28 21  06 30 40.559   +25 39 20.57  .02370 1.0070 149.3 24.9 725' 167
2022 11 28 22  06 30 41.090   +25 39 28.34  .02381 1.0071 149.3 24.9 741' 168
2022 11 28 23  06 30 41.607   +25 39 36.04  .02392 1.0072 149.4 24.9 757' 168
2022 11 29 00  06 30 42.110   +25 39 43.67  .02403 1.0073 149.4 24.9 774' 169
2022 11 29 01  06 30 42.600   +25 39 51.22  .02414 1.0074 149.5 24.9 792' 169
2022 11 29 02  06 30 43.076   +25 39 58.71  .02425 1.0075 149.5 24.9 810' 169
2022 11 29 03  06 30 43.539   +25 40 06.12  .02436 1.0076 149.5 24.9 830' 170
2022 11 29 04  06 30 43.989   +25 40 13.47  .02447 1.0077 149.6 24.9 849' 170
2022 11 29 05  06 30 44.426   +25 40 20.75  .02458 1.0078 149.6 24.9 870' 171
2022 11 29 06  06 30 44.850   +25 40 27.96  .02469 1.0079 149.7 25.0 891' 171
2022 11 29 07  06 30 45.261   +25 40 35.11  .02480 1.0080 149.7 25.0 912' 171
2022 11 29 08  06 30 45.660   +25 40 42.19  .02491 1.0081 149.7 25.0 934' 172
2022 11 29 09  06 30 46.046   +25 40 49.20  .02502 1.0082 149.8 25.0 957' 172
2022 11 29 10  06 30 46.420   +25 40 56.15  .02513 1.0083 149.8 25.0 980' 173
2022 11 29 11  06 30 46.782   +25 41 03.04  .02524 1.0084 149.9 25.0  17d 173
2022 11 29 12  06 30 47.132   +25 41 09.87  .02535 1.0085 149.9 25.0  17d 174
2022 11 29 13  06 30 47.470   +25 41 16.64  .02546 1.0086 149.9 25.0  18d 174
2022 11 29 14  06 30 47.796   +25 41 23.34  .02557 1.0087 150.0 25.0  18d 175
2022 11 29 15  06 30 48.111   +25 41 29.99  .02568 1.0088 150.0 25.0  18d 175
2022 11 29 16  06 30 48.414   +25 41 36.57  .02579 1.0089 150.1 25.0  19d 176
2022 11 29 17  06 30 48.706   +25 41 43.10  .02590 1.0090 150.1 25.0  19d 176
2022 11 29 18  06 30 48.987   +25 41 49.57  .02601 1.0091 150.1 25.1  20d 177